星链-11693 (STARLINK-11693)

导读 | 豆包AI

STARLINK-11693是美国于2025年4月29日发射的Starlink星链互联网卫星,星链项目是美国太空探索技术公司SpaceX打造的低轨卫星星座计划,旨在为全球提供高速低延迟宽带互联网服务。该卫星作为星链星座组网的一部分,加入近地轨道运行,进一步完善星座全球覆盖能力,推动全球互联网普及进程。

基本信息
目录编号:
63763
目录名称:
STARLINK-11693
国际标识:
2025-089N
轨道中心:
EARTH
卫星名称:
星链-11693
卫星全名:
星链-11693 (STARLINK-11693)
卫星状态:
在轨 (已飞行368 天)
发射日期:
2025-04-29 UTC
国别 :
美国 (US)
星等 :
--
轨道信息
数据来源 国际轨道数据
星历时间: 2026-05-01T23:13:14+0800
19小时前
查看轨道信息
半长轴: 6734.341km
偏心率: 0.0001955
轨道倾角: 42.999°
近地点辐角 273.369°
升交点赤经 332.988°
平近点角 86.695°
近地点: 354.887km
远地点: 357.521km
周期: 91.665分钟
每日圈数: 15.709419
详细信息
固有亮度:
5
最大亮度:
2.5
卫星平台:
Starlink V1.0
覆盖范围:
全球
运营商:
太空探索技术公司
运营商所在国:
美国
制造商(研发单位):
太空探索技术公司
制造商所在国:
美国
使用方式:
暂无
卫星简介
Starlink 计划是 SpaceX 推出的全球卫星互联网项目,通过发射低轨道卫星,为全球尤其是偏远地区提供高速、低延迟的互联网服务。自 2019 年起,Starlink 已部署数千颗卫星,旨在缩小全球数字鸿沟,推动互联网普及。该项目还为军事、航空等行业提供通信支持,带来广泛经济效益。
2D轨道图
3D轨道图
轨道高度分析图
轨道倾角分析图
轨道综合分析图
查看轨道综合分析图